Regional Weather Roundup
Issued by NWS

Home | Current Version | Previous Version | Graphics & Text | Print | Product List | Glossary On
Versions: 1 2 3 4 5 6 7 8 9 10 11 12 13 14 15 16 17 18 19 20 21 22 23 24 25 26 27 28 29 30 31 32 33 34 35 36 37 38 39 40 41 42 43 44 45 46 47 48 49 50
000
ASUS43 KDMX 230207
RWRIA

WEATHER ROUNDUP FOR IOWA
NATIONAL WEATHER SERVICE DES MOINES IA
900 PM CDT FRI AUG 22 2014

NOTE: "FAIR" INDICATES FEW OR NO CLOUDS BELOW 12,000 FEET WITH NO
SIGNIFICANT WEATHER AND/OR OBSTRUCTIONS TO VISIBILITY.

* - THESE STATIONS ARE NOT NWS STATIONS...THUS NOT UNDER NWS
QUALITY CONTROL.  THEY ALSO DO NOT REPORT WEATHER SUCH
AS PRECIPITATION OR FOG.

IAZ001>003-012>014-020>022-031>034-043>046-230300-
   NORTHWEST IOWA

CITY           SKY/WX    TMP DP  RH WIND       PRES   REMARKS
CARROLL *      MOCLDY    73  72  94 NE5       29.95F
CHEROKEE *     CLOUDY    79  75  89 NE5       29.97F HX  82
DENISON *      MOCLDY    73  73 100 NE10      29.92F
LE MARS *      CLEAR     77  73  88 NE9       29.96S
ORANGE CITY *  CLEAR     79  72  78 E6        29.98S HX  82
SHELDON *      PTCLDY    75  72  88 E7        29.98S
SIOUX CITY     CLOUDY    81  75  82 E5        29.93S HX  87
SPENCER        CLOUDY    76  71  85 NE8       30.00R
STORM LAKE *   PTCLDY    73  73 100 N5        29.97F
$$

IAZ055>058-069>071-079>083-090>094-230300-
   SOUTHWEST IOWA

CITY           SKY/WX    TMP DP  RH WIND       PRES   REMARKS
ATLANTIC *     CLEAR     75  73  94 CALM      29.94R
AUDUBON *      LGT RAIN  75  72  88 CALM      29.96F
CLARINDA *     CLEAR     75  73  94 CALM      29.95S
COUNCIL BLFS * CLEAR     77  77 100 SE8       29.91F
CRESTON *      CLEAR     77  75  94 CALM      29.97R
HARLAN  *      CLEAR     75  75 100 E5        29.96F
LAMONI         CLOUDY    78  76  93 N7        29.96R HX  81
RED OAK *      CLEAR     75  73  94 CALM      29.92F
SHENANDOAH *   CLEAR     77  73  88 SE5       29.93F
$$

IAZ047>049-059>061-072>074-084-230300-
   CENTRAL IOWA

CITY           SKY/WX    TMP DP  RH WIND       PRES   REMARKS
AMES           CLOUDY    79  77  94 CALM      29.96R FOG     HX  83
ANKENY *       MOCLDY    81  77  89 CALM      29.95R HX  88
CHARITON *     PTCLDY    79  77  94 CALM      29.95S HX  83
DES MOINES     CLOUDY    81  75  82 CALM      29.95R HX  87
GRINNELL*      CLOUDY    77  73  88 E5        29.98R
KNOXVILLE *    PTCLDY    82  77  83 CALM      29.93S HX  91
MARSHALLTOWN   CLOUDY    79  76  90 E3        29.96R HX  83
PELLA *        CLOUDY    81  79  94 CALM      29.95S HX  89
PERRY *          N/A     75  73  94 N3        29.96S
$$

IAZ004>006-015-016-023>025-035-036-230300-
   NORTH CENTRAL IOWA

CITY           SKY/WX    TMP DP  RH WIND       PRES   REMARKS
ALGONA *       PTCLDY    77  75  94 NE5       30.00R
CLARION *      MOCLDY    77  70  78 CALM      29.99R
ESTHERVILLE    MOCLDY    72  70  93 NE5       30.01R
FORT DODGE *   CLOUDY    73  70  88 SW3       29.96F THUNDER
MASON CITY     CLOUDY    76  73  91 CALM      30.02R
FOREST CITY *  PTCLDY    77  72  83 N5        30.00R
IOWA FALLS *     N/A     77  73  88 CALM      29.99R
$$

IAZ007>011-017>019-026>030-037>042-050>054-066-230300-
   NORTHEAST IOWA

CITY           SKY/WX    TMP DP  RH WIND       PRES   REMARKS
CEDAR RAPIDS   MOCLDY    76  75  97 SE3       29.96R
CHARLES CITY * PTCLDY    77  75  94 N5        30.00R
CLINTON *      CLOUDY    79  75  89 S5        29.99R HX  82
DECORAH *      PTCLDY    77  75  94 CALM      29.97R
DUBUQUE        PTCLDY    78  76  93 S6        29.98R HX  81
MONTICELLO *   CLOUDY    79  77  94 S7        29.96R HX  83
OELWEIN *      MOCLDY    79  75  89 W3        29.98R HX  82
WATERLOO       CLOUDY    76  71  85 N3        29.96R
$$

IAZ064-065-067-068-078-230300-
   EAST CENTRAL IOWA

CITY           SKY/WX    TMP DP  RH WIND       PRES   REMARKS
DAVENPORT      MOCLDY    76  72  87 CALM      29.97R
IOWA CITY      MOCLDY    78  76  93 CALM      29.96R HX  81
MT. PLEASANT * MOCLDY    79  77  94 NE3       29.95R HX  83
MUSCATINE *    MOCLDY    81  77  89 CALM      29.95R HX  88
QUAD CITIES    CLEAR     79  74  84 CALM      29.96R HX  82
$$

IAZ062-063-075>077-085>089-095>099-230300-
   SOUTHEAST IOWA

CITY           SKY/WX    TMP DP  RH WIND       PRES   REMARKS
BURLINGTON     PTCLDY    80  78  94 CALM      29.95R HX  88
FAIRFIELD *    PTCLDY    79  77  94 CALM      29.95R HX  83
FORT MADISON * PTCLDY    81  79  94 CALM      29.96R FOG     HX  89
KEOKUK *       PTCLDY    79  79 100 CALM      29.94R HX  83
OSKALOOSA *    MOCLDY    81  77  89 SE3       29.96R HX  88
CENTERVILLE *  CLEAR     77  77 100 CALM      29.98R
OTTUMWA        MOCLDY    80  77  90 CALM      29.96R HX  87
WASHINGTON *   CLEAR     79  77  94 CALM      29.95S HX  83
$$

ABBREVIATIONS USED IN REMARKS
   TC - TEMPERATURES IN CELSIUS
  WCI - WIND CHILL INDEX
   HX - HEAT INDEX
  VSB - VISIBILITY
$$



USA.gov is the U.S. government's official web portal to all federal, state and local government web resources and services.